QPF
0.00 0.00 0.00 0.00 0.00 0.00 0.01 0.01 0.01 0.01 0.02 0.01 0.01 0.01 0.02 0.02 0.02 0.01 0.00 0.00 0.01 0.02 0.04 0.06 0.05 0.04 0.03 0.02 0.02 0.02 0.03 0.03 0.03 0.04 0.08 0.09 0.06 0.04 0.02 0.02 0.02 0.02 0.01
0.00 0.00 0.00 0.00 0.00 0.00 0.00 0.01 0.01 0.01 0.02 0.02 0.01 0.01 0.02 0.02 0.02 0.02 0.01 0.00 0.01 0.01 0.03 0.05 0.05 0.04 0.03 0.02 0.02 0.03 0.04 0.03 0.03 0.04 0.06 0.08 0.08 0.06 0.03 0.01 0.01 0.01 0.01
0.00 0.00 0.00 0.00 0.00 0.00 0.00 0.00 0.00 0.01 0.02 0.03 0.02 0.01 0.01 0.02 0.02 0.02 0.03 0.01 0.01 0.01 0.02 0.03 0.04 0.05 0.04 0.03 0.02 0.02 0.04 0.03 0.03 0.04 0.06 0.07 0.07 0.07 0.05 0.02 0.01 0.01 0.00
0.00 0.00 0.00 0.00 0.00 0.00 0.00 0.00 0.00 0.00 0.01 0.02 0.03 0.02 0.02 0.02 0.03 0.03 0.04 0.04 0.02 0.01 0.01 0.02 0.03 0.04 0.04 0.04 0.03 0.03 0.04 0.03 0.03 0.04 0.05 0.05 0.05 0.05 0.06 0.04 0.02 0.01 0.01
0.00 0.01 0.00 0.00 0.00 0.00 0.00 0.00 0.00 0.00 0.00 0.01 0.03 0.03 0.02 0.02 0.02 0.03 0.04 0.05 0.04 0.02 0.02 0.02 0.03 0.04 0.04 0.04 0.04 0.03 0.04 0.04 0.03 0.04 0.05 0.04 0.03 0.03 0.04 0.04 0.03 0.03 0.02
0.00 0.00 0.01 0.00 0.00 0.00 0.00 0.00 0.00 0.00 0.00 0.01 0.01 0.02 0.03 0.02 0.02 0.02 0.03 0.04 0.04 0.04 0.03 0.02 0.03 0.04 0.03 0.03 0.03 0.03 0.03 0.04 0.04 0.04 0.05 0.05 0.04 0.03 0.03 0.03 0.03 0.03 0.02
0.00 0.01 0.01 0.01 0.00 0.00 0.00 0.00 0.01 0.01 0.01 0.01 0.01 0.01 0.02 0.02 0.02 0.02 0.02 0.02 0.03 0.03 0.04 0.04 0.04 0.04 0.04 0.03 0.03 0.03 0.03 0.03 0.04 0.04 0.05 0.04 0.03 0.03 0.02 0.02 0.03 0.03 0.02
0.00 0.00 0.01 0.01 0.00 0.00 0.00 0.00 0.00 0.00 0.00 0.01 0.01 0.01 0.01 0.01 0.01 0.02 0.02 0.01 0.01 0.02 0.02 0.04 0.04 0.05 0.05 0.04 0.03 0.03 0.03 0.03 0.03 0.03 0.04 0.04 0.03 0.03 0.03 0.02 0.02 0.02 0.02
0.00 0.00 0.01 0.01 0.01 0.00 0.00 0.00 0.00 0.00 0.00 0.00 0.01 0.01 0.01 0.01 0.01 0.01 0.01 0.01 0.01 0.01 0.01 0.02 0.04 0.04 0.05 0.05 0.03 0.03 0.03 0.03 0.03 0.03 0.03 0.04 0.03 0.03 0.03 0.02 0.02 0.02 0.02
0.01 0.00 0.01 0.01 0.01 0.00 0.00 0.00 0.00 0.00 0.00 0.00 0.00 0.00 0.01 0.01 0.01 0.01 0.01 0.01 0.01 0.01 0.01 0.01 0.03 0.03 0.04 0.06 0.05 0.04 0.04 0.04 0.03 0.03 0.03 0.03 0.03 0.03 0.03 0.02 0.02 0.02 0.02
0.01 0.01 0.00 0.01 0.00 0.00 0.00 0.00 0.00 0.00 0.00 0.01 0.01 0.00 0.00 0.00 0.00 0.01 0.01 0.01 0.01 0.02 0.01 0.01 0.01 0.02 0.02 0.04 0.06 0.06 0.04 0.04 0.04 0.04 0.03 0.03 0.03 0.03 0.03 0.02 0.02 0.02 0.02
0.01 0.01 0.00 0.00 0.00 0.00 0.00 0.00 0.00 0.00 0.00 0.01 0.01 0.01 0.00 0.00 0.00 0.00 0.00 0.01 0.01 0.02 0.02 0.02 0.01 0.01 0.02 0.02 0.04 0.07 0.06 0.05 0.04 0.04 0.04 0.04 0.04 0.04 0.03 0.02 0.02 0.02 0.02
0.00 0.01 0.00 0.00 0.00 0.00 0.00 0.00 0.00 0.00 0.00 0.00 0.00 0.01 0.00 0.00 0.00 0.00 0.00 0.00 0.01 0.01 0.02 0.03 0.02 0.02 0.02 0.02 0.03 0.06 0.08 0.07 0.06 0.05 0.05 0.04 0.04 0.05 0.04 0.03 0.02 0.01 0.01
0.00 0.00 0.00 0.00 0.00 0.00 0.00 0.00 0.00 0.00 0.00 0.00 0.00 0.00 0.00 0.00 0.00 0.00 0.00 0.00 0.00 0.01 0.01 0.01 0.02 0.02 0.01 0.01 0.02 0.04 0.07 0.08 0.07 0.06 0.05 0.04 0.05 0.05 0.05 0.04 0.03 0.02 0.02
0.00 0.00 0.00 0.00 0.00 0.00 0.00 0.00 0.00 0.00 0.00 0.00 0.00 0.00 0.00 0.00 0.00 0.00 0.00 0.00 0.00 0.00 0.01 0.01 0.01 0.01 0.01 0.01 0.02 0.02 0.03 0.06 0.07 0.07 0.07 0.06 0.05 0.06 0.06 0.06 0.05 0.04 0.04
0.01 0.00 0.00 0.00 0.00 0.00 0.01 0.01 0.00 0.00 0.00 0.00 0.00 0.00 0.00 0.00 0.00 0.00 0.00 0.00 0.00 0.00 0.00 0.00 0.01 0.01 0.01 0.01 0.02 0.02 0.02 0.03 0.05 0.07 0.07 0.07 0.06 0.05 0.06 0.07 0.07 0.06 0.06
0.01 0.01 0.00 0.00 0.00 0.00 0.00 0.01 0.01 0.01 0.00 0.00 0.00 0.00 0.00 0.00 0.00 0.00 0.00 0.00 0.00 0.00 0.00 0.00 0.00 0.01 0.01 0.01 0.01 0.02 0.02 0.02 0.03 0.04 0.06 0.07 0.06 0.06 0.06 0.06 0.07 0.06 0.06
0.00 0.00 0.00 0.00 0.00 0.00 0.00 0.01 0.01 0.01 0.01 0.01 0.01 0.00 0.00 0.00 0.00 0.00 0.00 0.00 0.00 0.00 0.00 0.00 0.00 0.00 0.00 0.01 0.01 0.01 0.02 0.02 0.02 0.02 0.04 0.06 0.05 0.05 0.06 0.07 0.07 0.06 0.06
0.00 0.00 0.01 0.01 0.01 0.01 0.01 0.01 0.01 0.01 0.02 0.02 0.01 0.01 0.00 0.00 0.00 0.00 0.00 0.00 0.00 0.00 0.00 0.00 0.00 0.00 0.00 0.00 0.00 0.01 0.01 0.02 0.02 0.02 0.02 0.03 0.04 0.04 0.05 0.07 0.08 0.07 0.06
0.00 0.00 0.01 0.01 0.01 0.01 0.01 0.01 0.00 0.01 0.01 0.01 0.01 0.01 0.01 0.01 0.01 0.00 0.00 0.00 0.00 0.00 0.00 0.00 0.00 0.00 0.00 0.00 0.00 0.01 0.01 0.02 0.02 0.02 0.02 0.02 0.02 0.03 0.05 0.06 0.07 0.07 0.05
0.00 0.00 0.00 0.00 0.00 0.00 0.00 0.00 0.00 0.00 0.00 0.00 0.01 0.01 0.01 0.01 0.01 0.01 0.01 0.01 0.01 0.01 0.00 0.00 0.00 0.00 0.00 0.00 0.00 0.01 0.02 0.02 0.02 0.02 0.02 0.01 0.02 0.02 0.04 0.05 0.06 0.06 0.05
0.00 0.00 0.00 0.00 0.00 0.00 0.00 0.00 0.00 0.00 0.00 0.00 0.00 0.00 0.01 0.01 0.01 0.01 0.01 0.01 0.01 0.01 0.01 0.00 0.00 0.00 0.00 0.00 0.00 0.01 0.01 0.02 0.03 0.02 0.02 0.02 0.02 0.02 0.03 0.03 0.04 0.05 0.05
0.00 0.00 0.00 0.00 0.00 0.00 0.00 0.00 0.00 0.00 0.00 0.00 0.00 0.00 0.00 0.00 0.00 0.00 0.01 0.01 0.01 0.01 0.01 0.01 0.01 0.01 0.00 0.00 0.00 0.01 0.01 0.01 0.02 0.02 0.02 0.02 0.02 0.02 0.02 0.02 0.02 0.03 0.04
0.00 0.00 0.00 0.00 0.00 0.00 0.00 0.00 0.01 0.01 0.00 0.00 0.00 0.00 0.00 0.00 0.00 0.00 0.00 0.00 0.01 0.01 0.01 0.01 0.01 0.01 0.01 0.01 0.01 0.01 0.01 0.02 0.02 0.02 0.02 0.02 0.01 0.01 0.01 0.02 0.02 0.02 0.03
0.00 0.00 0.00 0.00 0.00 0.00 0.00 0.00 0.01 0.01 0.01 0.00 0.00 0.00 0.00 0.00 0.00 0.00 0.00 0.00 0.01 0.01 0.02 0.02 0.02 0.02 0.02 0.02 0.02 0.02 0.03 0.03 0.03 0.03 0.03 0.02 0.01 0.01 0.02 0.02 0.03 0.03 0.03
0.00 0.00 0.00 0.00 0.00 0.00 0.00 0.00 0.00 0.01 0.01 0.01 0.01 0.01 0.00 0.00 0.00 0.00 0.00 0.00 0.00 0.01 0.01 0.01 0.02 0.02 0.02 0.02 0.02 0.02 0.03 0.03 0.03 0.03 0.03 0.02 0.02 0.02 0.02 0.02 0.02 0.03 0.03
MSLP
1008.58 1009.51 1010.49 1011.46 1012.41 1013.34 1014.25 1015.17 1016.09 1017.03 1017.96 1018.86 1019.69 1020.44 1021.09 1021.62 1022.07 1022.45 1022.78 1023.09 1023.41 1023.73 1024.06 1024.39 1024.69 1024.97 1025.20 1025.38 1025.51 1025.60 1025.66 1025.71 1025.75 1025.78 1025.82 1025.85 1025.88 1025.90 1025.92 1025.93 1025.94 1025.95 1025.97
1007.89 1008.83 1009.81 1010.78 1011.73 1012.66 1013.58 1014.52 1015.48 1016.45 1017.43 1018.37 1019.24 1020.02 1020.69 1021.24 1021.69 1022.06 1022.40 1022.73 1023.08 1023.45 1023.84 1024.22 1024.60 1024.93 1025.20 1025.41 1025.56 1025.67 1025.73 1025.78 1025.83 1025.88 1025.92 1025.97 1026.01 1026.03 1026.04 1026.04 1026.02 1026.00 1025.99
1007.33 1008.26 1009.23 1010.19 1011.13 1012.04 1012.96 1013.89 1014.85 1015.84 1016.83 1017.80 1018.69 1019.48 1020.16 1020.71 1021.16 1021.54 1021.89 1022.24 1022.63 1023.04 1023.49 1023.94 1024.37 1024.76 1025.07 1025.32 1025.49 1025.61 1025.69 1025.75 1025.82 1025.89 1025.96 1026.03 1026.09 1026.13 1026.14 1026.12 1026.08 1026.02 1025.97
1006.88 1007.80 1008.76 1009.70 1010.60 1011.49 1012.37 1013.27 1014.22 1015.19 1016.17 1017.13 1018.02 1018.82 1019.49 1020.04 1020.49 1020.88 1021.25 1021.64 1022.06 1022.52 1023.03 1023.53 1024.02 1024.45 1024.81 1025.09 1025.29 1025.43 1025.54 1025.63 1025.72 1025.83 1025.94 1026.05 1026.14 1026.20 1026.21 1026.18 1026.12 1026.03 1025.93
1006.53 1007.45 1008.39 1009.29 1010.16 1010.99 1011.83 1012.68 1013.57 1014.51 1015.45 1016.39 1017.26 1018.04 1018.70 1019.26 1019.73 1020.14 1020.53 1020.95 1021.42 1021.93 1022.48 1023.03 1023.57 1024.04 1024.44 1024.75 1024.99 1025.16 1025.30 1025.43 1025.57 1025.72 1025.88 1026.04 1026.17 1026.25 1026.28 1026.24 1026.15 1026.02 1025.87
1006.29 1007.19 1008.10 1008.97 1009.78 1010.56 1011.32 1012.11 1012.93 1013.80 1014.70 1015.58 1016.42 1017.19 1017.85 1018.42 1018.90 1019.35 1019.78 1020.24 1020.74 1021.30 1021.89 1022.48 1023.05 1023.55 1023.98 1024.33 1024.60 1024.81 1024.99 1025.17 1025.37 1025.57 1025.79 1026.00 1026.17 1026.28 1026.32 1026.28 1026.17 1026.01 1025.81
1006.12 1007.01 1007.88 1008.70 1009.46 1010.17 1010.86 1011.56 1012.31 1013.11 1013.93 1014.77 1015.57 1016.32 1016.98 1017.57 1018.09 1018.57 1019.05 1019.55 1020.09 1020.67 1021.29 1021.90 1022.49 1023.01 1023.46 1023.83 1024.14 1024.39 1024.63 1024.86 1025.11 1025.37 1025.64 1025.89 1026.10 1026.24 1026.30 1026.26 1026.15 1025.96 1025.74
1005.99 1006.85 1007.69 1008.47 1009.17 1009.81 1010.42 1011.05 1011.72 1012.44 1013.20 1013.98 1014.75 1015.49 1016.16 1016.77 1017.32 1017.84 1018.37 1018.91 1019.48 1020.09 1020.71 1021.33 1021.91 1022.44 1022.90 1023.29 1023.62 1023.92 1024.19 1024.48 1024.77 1025.09 1025.40 1025.69 1025.93 1026.10 1026.18 1026.15 1026.04 1025.85 1025.61
1005.85 1006.68 1007.48 1008.21 1008.86 1009.45 1010.01 1010.58 1011.18 1011.84 1012.54 1013.28 1014.02 1014.73 1015.41 1016.04 1016.63 1017.20 1017.76 1018.33 1018.92 1019.53 1020.15 1020.76 1021.33 1021.85 1022.30 1022.70 1023.05 1023.37 1023.68 1024.00 1024.34 1024.69 1025.03 1025.35 1025.61 1025.80 1025.90 1025.89 1025.80 1025.63 1025.40
1005.65 1006.45 1007.21 1007.91 1008.53 1009.09 1009.62 1010.15 1010.71 1011.32 1011.98 1012.68 1013.39 1014.10 1014.78 1015.42 1016.04 1016.63 1017.22 1017.81 1018.41 1019.01 1019.61 1020.19 1020.73 1021.23 1021.67 1022.06 1022.42 1022.75 1023.08 1023.42 1023.78 1024.14 1024.49 1024.82 1025.09 1025.30 1025.41 1025.44 1025.38 1025.24 1025.05
1005.33 1006.09 1006.83 1007.52 1008.14 1008.70 1009.23 1009.76 1010.31 1010.90 1011.54 1012.21 1012.90 1013.59 1014.26 1014.91 1015.54 1016.14 1016.73 1017.32 1017.91 1018.49 1019.07 1019.61 1020.12 1020.59 1021.01 1021.39 1021.74 1022.07 1022.40 1022.74 1023.09 1023.45 1023.79 1024.10 1024.37 1024.58 1024.71 1024.77 1024.75 1024.67 1024.53
1004.88 1005.62 1006.36 1007.05 1007.69 1008.29 1008.86 1009.42 1009.99 1010.59 1011.22 1011.88 1012.55 1013.21 1013.87 1014.50 1015.12 1015.71 1016.29 1016.87 1017.43 1017.98 1018.52 1019.03 1019.50 1019.94 1020.34 1020.70 1021.04 1021.36 1021.68 1022.00 1022.32 1022.64 1022.95 1023.23 1023.48 1023.68 1023.82 1023.90 1023.93 1023.90 1023.83
1004.34 1005.08 1005.82 1006.55 1007.25 1007.90 1008.54 1009.15 1009.77 1010.40 1011.04 1011.69 1012.33 1012.97 1013.60 1014.20 1014.78 1015.35 1015.90 1016.44 1016.97 1017.49 1018.00 1018.47 1018.91 1019.32 1019.70 1020.04 1020.36 1020.66 1020.95 1021.24 1021.52 1021.79 1022.04 1022.27 1022.48 1022.65 1022.79 1022.89 1022.96 1022.99 1022.98
1003.82 1004.57 1005.34 1006.11 1006.87 1007.61 1008.31 1009.00 1009.68 1010.34 1011.00 1011.64 1012.27 1012.87 1013.45 1014.01 1014.55 1015.07 1015.58 1016.09 1016.58 1017.06 1017.53 1017.97 1018.39 1018.78 1019.14 1019.46 1019.76 1020.04 1020.29 1020.53 1020.75 1020.96 1021.14 1021.31 1021.46 1021.59 1021.71 1021.82 1021.91 1021.98 1022.02
1003.47 1004.23 1005.03 1005.85 1006.67 1007.47 1008.26 1009.02 1009.75 1010.45 1011.12 1011.75 1012.35 1012.92 1013.46 1013.97 1014.45 1014.93 1015.39 1015.85 1016.30 1016.75 1017.18 1017.60 1017.99 1018.36 1018.70 1019.01 1019.29 1019.53 1019.75 1019.93 1020.09 1020.22 1020.33 1020.42 1020.50 1020.58 1020.66 1020.75 1020.85 1020.94 1021.02
1003.45 1004.21 1005.04 1005.89 1006.75 1007.60 1008.44 1009.24 1010.01 1010.73 1011.41 1012.03 1012.61 1013.14 1013.63 1014.09 1014.53 1014.95 1015.37 1015.78 1016.20 1016.60 1017.00 1017.39 1017.76 1018.11 1018.43 1018.72 1018.97 1019.18 1019.35 1019.48 1019.57 1019.62 1019.64 1019.65 1019.66 1019.68 1019.71 1019.77 1019.85 1019.94 1020.04
1003.88 1004.65 1005.46 1006.31 1007.18 1008.04 1008.89 1009.71 1010.48 1011.20 1011.87 1012.48 1013.03 1013.53 1013.98 1014.40 1014.80 1015.18 1015.56 1015.93 1016.30 1016.67 1017.03 1017.38 1017.72 1018.04 1018.33 1018.58 1018.80 1018.97 1019.09 1019.16 1019.19 1019.17 1019.11 1019.05 1018.97 1018.92 1018.90 1018.91 1018.96 1019.04 1019.13
1004.84 1005.58 1006.36 1007.17 1008.00 1008.83 1009.64 1010.43 1011.17 1011.86 1012.50 1013.08 1013.60 1014.07 1014.50 1014.90 1015.27 1015.62 1015.96 1016.29 1016.62 1016.95 1017.26 1017.57 1017.86 1018.13 1018.37 1018.59 1018.76 1018.89 1018.96 1018.97 1018.93 1018.85 1018.72 1018.58 1018.45 1018.33 1018.24 1018.20 1018.21 1018.26 1018.33
1006.25 1006.95 1007.68 1008.42 1009.17 1009.91 1010.65 1011.36 1012.03 1012.67 1013.26 1013.80 1014.30 1014.75 1015.16 1015.54 1015.90 1016.23 1016.55 1016.85 1017.13 1017.41 1017.66 1017.91 1018.13 1018.34 1018.53 1018.68 1018.80 1018.87 1018.89 1018.85 1018.76 1018.62 1018.44 1018.24 1018.04 1017.86 1017.73 1017.64 1017.60 1017.61 1017.66
1007.98 1008.63 1009.27 1009.92 1010.56 1011.20 1011.82 1012.43 1013.01 1013.57 1014.10 1014.59 1015.06 1015.50 1015.90 1016.28 1016.63 1016.96 1017.25 1017.52 1017.76 1017.98 1018.17 1018.34 1018.49 1018.62 1018.73 1018.82 1018.87 1018.88 1018.85 1018.77 1018.63 1018.44 1018.22 1017.98 1017.74 1017.51 1017.33 1017.20 1017.12 1017.09 1017.11
1009.81 1010.41 1010.98 1011.52 1012.05 1012.56 1013.06 1013.55 1014.03 1014.50 1014.96 1015.41 1015.84 1016.26 1016.66 1017.04 1017.39 1017.71 1017.99 1018.23 1018.43 1018.58 1018.71 1018.80 1018.86 1018.91 1018.94 1018.94 1018.93 1018.89 1018.81 1018.68 1018.51 1018.30 1018.05 1017.78 1017.50 1017.25 1017.03 1016.86 1016.75 1016.69 1016.68
1011.54 1012.10 1012.61 1013.07 1013.50 1013.90 1014.28 1014.65 1015.03 1015.41 1015.79 1016.19 1016.59 1016.99 1017.38 1017.76 1018.11 1018.42 1018.68 1018.89 1019.05 1019.15 1019.20 1019.22 1019.20 1019.16 1019.11 1019.05 1018.97 1018.88 1018.75 1018.60 1018.41 1018.18 1017.91 1017.63 1017.34 1017.06 1016.82 1016.62 1016.48 1016.39 1016.36
1013.01 1013.56 1014.03 1014.44 1014.79 1015.11 1015.40 1015.68 1015.96 1016.26 1016.58 1016.91 1017.27 1017.65 1018.02 1018.39 1018.73 1019.03 1019.28 1019.46 1019.58 1019.63 1019.62 1019.56 1019.47 1019.36 1019.24 1019.12 1018.99 1018.85 1018.70 1018.53 1018.33 1018.09 1017.82 1017.54 1017.24 1016.95 1016.69 1016.47 1016.30 1016.18 1016.12
1014.17 1014.72 1015.19 1015.57 1015.89 1016.16 1016.39 1016.60 1016.82 1017.05 1017.30 1017.58 1017.89 1018.23 1018.58 1018.92 1019.25 1019.53 1019.75 1019.90 1019.98 1019.99 1019.93 1019.82 1019.67 1019.50 1019.33 1019.16 1018.99 1018.83 1018.67 1018.49 1018.28 1018.05 1017.79 1017.51 1017.21 1016.92 1016.64 1016.39 1016.20 1016.05 1015.96
1015.01 1015.60 1016.08 1016.48 1016.80 1017.05 1017.26 1017.43 1017.60 1017.78 1017.98 1018.21 1018.47 1018.76 1019.06 1019.37 1019.66 1019.91 1020.10 1020.22 1020.27 1020.24 1020.14 1019.99 1019.80 1019.60 1019.39 1019.19 1019.00 1018.83 1018.66 1018.48 1018.29 1018.06 1017.82 1017.54 1017.25 1016.95 1016.66 1016.39 1016.17 1015.99 1015.85
1015.68 1016.28 1016.80 1017.22 1017.56 1017.83 1018.04 1018.20 1018.34 1018.48 1018.64 1018.81 1019.02 1019.25 1019.50 1019.76 1020.00 1020.21 1020.36 1020.45 1020.46 1020.40 1020.27 1020.09 1019.88 1019.65 1019.43 1019.21 1019.02 1018.84 1018.67 1018.50 1018.32 1018.11 1017.88 1017.62 1017.33 1017.03 1016.73 1016.44 1016.18 1015.96 1015.78
Thickness
5535 5531 5527 5523 5519 5516 5514 5512 5511 5510 5510 5510 5509 5508 5508 5508 5509 5509 5509 5510 5511 5513 5515 5515 5517 5520 5522 5524 5526 5529 5531 5534 5538 5542 5547 5552 5556 5558 5559 5559 5559 5561 5562
5527 5523 5518 5514 5511 5507 5505 5502 5501 5500 5499 5499 5498 5497 5497 5496 5497 5497 5497 5498 5498 5500 5501 5502 5503 5505 5507 5509 5512 5514 5515 5518 5521 5523 5528 5534 5539 5542 5545 5545 5546 5547 5548
5522 5516 5511 5506 5502 5498 5495 5494 5491 5489 5488 5487 5487 5486 5485 5484 5484 5485 5485 5485 5485 5486 5487 5488 5489 5490 5492 5494 5496 5498 5499 5501 5504 5506 5508 5512 5517 5522 5529 5531 5532 5533 5534
5517 5510 5505 5499 5494 5490 5486 5484 5481 5478 5477 5476 5475 5474 5473 5471 5471 5471 5472 5472 5472 5473 5474 5475 5475 5476 5477 5478 5480 5482 5484 5485 5487 5489 5492 5495 5498 5500 5507 5514 5516 5518 5519
5511 5504 5498 5492 5487 5481 5477 5474 5471 5469 5466 5465 5464 5462 5461 5460 5459 5459 5459 5459 5459 5460 5460 5460 5461 5461 5462 5463 5464 5466 5468 5469 5471 5473 5476 5479 5481 5485 5486 5493 5497 5501 5503
5504 5496 5489 5483 5477 5472 5468 5465 5461 5459 5456 5454 5452 5451 5449 5448 5447 5447 5447 5446 5446 5446 5446 5446 5446 5446 5447 5448 5449 5450 5452 5454 5456 5457 5459 5461 5464 5467 5468 5472 5476 5481 5486
5495 5487 5480 5474 5468 5464 5459 5455 5452 5449 5446 5444 5441 5440 5437 5435 5435 5435 5434 5433 5433 5432 5431 5431 5431 5431 5432 5433 5434 5435 5437 5439 5441 5442 5443 5445 5448 5450 5452 5454 5457 5461 5468
5485 5478 5472 5465 5460 5455 5450 5446 5443 5439 5436 5433 5431 5429 5426 5424 5423 5422 5421 5420 5419 5418 5418 5417 5417 5417 5418 5419 5420 5421 5422 5424 5426 5427 5427 5429 5432 5434 5436 5437 5438 5443 5451
5476 5469 5463 5457 5451 5446 5442 5437 5433 5430 5427 5424 5421 5418 5416 5413 5411 5410 5408 5407 5406 5405 5404 5403 5403 5404 5405 5405 5405 5406 5407 5409 5410 5411 5412 5414 5416 5418 5420 5421 5421 5422 5430
5465 5459 5454 5448 5442 5437 5432 5428 5424 5420 5417 5414 5411 5408 5405 5402 5400 5397 5395 5394 5393 5392 5391 5390 5390 5391 5391 5392 5392 5392 5393 5394 5395 5397 5398 5399 5401 5403 5404 5405 5406 5407 5410
5454 5448 5443 5439 5433 5428 5423 5418 5414 5410 5406 5403 5400 5397 5394 5391 5388 5385 5383 5382 5381 5380 5378 5377 5377 5377 5377 5378 5379 5379 5379 5380 5380 5381 5383 5385 5386 5387 5388 5390 5391 5392 5394
5443 5438 5433 5428 5423 5418 5413 5408 5404 5400 5396 5393 5389 5385 5382 5379 5376 5374 5372 5370 5368 5367 5366 5364 5363 5363 5363 5364 5364 5364 5365 5365 5366 5367 5369 5370 5371 5372 5373 5375 5377 5378 5380
5432 5427 5422 5417 5413 5407 5402 5398 5393 5389 5385 5382 5378 5374 5370 5367 5364 5362 5359 5357 5356 5354 5353 5351 5350 5350 5349 5350 5351 5350 5351 5351 5351 5353 5354 5355 5356 5357 5359 5360 5362 5364 5366
5421 5416 5411 5406 5402 5397 5392 5387 5383 5378 5375 5371 5366 5362 5359 5355 5353 5350 5347 5345 5343 5341 5339 5338 5337 5336 5336 5336 5337 5336 5336 5337 5337 5338 5339 5341 5341 5343 5344 5347 5348 5350 5352
5410 5405 5399 5394 5390 5385 5381 5376 5372 5367 5363 5359 5355 5351 5348 5344 5341 5338 5335 5333 5330 5328 5326 5325 5324 5323 5322 5323 5323 5323 5323 5324 5325 5325 5326 5327 5328 5330 5332 5334 5336 5337 5338
5398 5393 5388 5383 5378 5373 5369 5364 5360 5356 5352 5347 5343 5339 5336 5332 5329 5326 5323 5320 5318 5315 5313 5312 5310 5309 5309 5309 5310 5310 5310 5311 5311 5312 5313 5314 5315 5317 5319 5321 5324 5325 5327
5385 5380 5375 5370 5365 5361 5357 5352 5348 5344 5339 5335 5331 5327 5323 5320 5317 5313 5310 5307 5305 5302 5300 5299 5298 5297 5297 5296 5297 5298 5298 5298 5298 5298 5299 5302 5304 5305 5306 5308 5311 5313 5315
5372 5367 5362 5357 5352 5348 5344 5340 5335 5331 5326 5322 5318 5315 5311 5307 5304 5301 5298 5295 5292 5290 5288 5287 5286 5285 5285 5284 5285 5286 5286 5286 5286 5286 5287 5288 5290 5291 5293 5295 5299 5302 5304
5358 5353 5349 5344 5339 5335 5331 5326 5322 5317 5313 5309 5305 5302 5298 5295 5292 5288 5285 5283 5280 5278 5277 5275 5274 5273 5273 5273 5273 5274 5274 5274 5275 5275 5276 5277 5279 5281 5282 5284 5287 5292 5296
5345 5340 5335 5331 5326 5322 5317 5313 5308 5304 5299 5296 5293 5289 5286 5282 5279 5276 5273 5270 5267 5266 5264 5264 5262 5261 5262 5262 5262 5262 5262 5263 5264 5265 5266 5267 5268 5270 5271 5272 5275 5280 5285
5331 5327 5322 5317 5313 5309 5304 5299 5294 5290 5287 5284 5280 5277 5273 5270 5267 5264 5261 5258 5255 5253 5251 5252 5252 5251 5251 5252 5252 5251 5250 5251 5252 5254 5255 5256 5258 5260 5262 5263 5266 5270 5274
5318 5313 5308 5304 5300 5296 5291 5286 5281 5278 5275 5271 5268 5264 5261 5257 5255 5252 5249 5246 5243 5241 5239 5238 5239 5239 5239 5239 5239 5240 5240 5240 5241 5242 5244 5245 5247 5249 5252 5254 5257 5260 5263
5304 5300 5295 5290 5286 5282 5277 5272 5268 5265 5262 5258 5254 5251 5248 5245 5242 5239 5236 5234 5231 5228 5227 5226 5226 5227 5227 5227 5227 5228 5229 5229 5229 5231 5233 5235 5237 5240 5242 5244 5247 5249 5251
5291 5286 5281 5276 5271 5267 5264 5259 5256 5252 5248 5244 5241 5239 5236 5233 5230 5227 5224 5222 5219 5216 5215 5214 5214 5214 5214 5214 5215 5216 5216 5217 5218 5219 5222 5224 5227 5229 5231 5234 5235 5238 5241
5277 5272 5267 5262 5258 5254 5250 5246 5242 5239 5235 5231 5229 5226 5224 5221 5218 5216 5212 5210 5208 5205 5203 5203 5202 5202 5203 5204 5204 5205 5207 5207 5207 5210 5212 5213 5215 5218 5220 5223 5225 5228 5230
5263 5258 5253 5249 5244 5240 5236 5233 5230 5226 5222 5220 5217 5214 5211 5209 5207 5205 5203 5201 5198 5196 5194 5193 5192 5193 5193 5194 5195 5195 5197 5198 5199 5200 5201 5202 5203 5206 5209 5212 5215 5217 5220